星链-32230 (STARLINK-32230)

导读

STARLINK-32230是美国SpaceX公司星链(Starlink)星座中的低轨通信卫星,采用Starlink v2.0 mini平台,于2024年8月4日发射。该卫星运行于近圆近地轨道,倾角约53度,轨道高度约475公里,目前处于在轨状态。它承担全球高速卫星互联网服务任务,支持宽带数据传输,帮助星链项目完善覆盖全球的网络布局,提升偏远地区等场景的网络接入能力,是SpaceX巨型低轨星座组网的重要组成部分。

基本信息
目录编号:
60366
目录名称:
STARLINK-32230
国际标识:
2024-138M
轨道中心:
EARTH
卫星名称:
星链-32230 (STARLINK-32230)
卫星全名:
星链-32230 (STARLINK-32230)
卫星状态:
在轨 (已飞行682 天)
发射日期:
2024-08-04 UTC
国别 :
美国 (US)
星等 :
--
轨道信息
数据来源 国际轨道数据 AOE轨道数据
星历时间 2026-06-17T17:59:10+0800
12小时前
查看轨道信息
2026-06-14T04:00:00+0800
4天前
查看轨道信息
半长轴 6853.37km 6853.377km
偏心率 0.0000925 0.0001381
轨道倾角 53.159° 53.155°
近地点辐角 85.851° 85.691°
升交点赤经 206.566° 223.212°
平近点角 274.259° 327.167°
近地点 474.599km 474.293km
远地点 475.867km 476.187km
周期 94.106分钟 94.106分钟
每日圈数 15.301943 15.301917
详细信息
卫星平台:
Starlink v2.0 mini
运营商:
太空探索技术公司
运营商所在国:
美国
制造商(研发单位):
太空探索技术公司
制造商所在国:
美国
使用方式:
暂无
卫星简介
星链(Starlink)计划是由太空探索技术公司(SpaceX)提出的一个巨型低轨卫星互联网星座项目,计划在2019年至2024年间在太空搭建由约1.2万颗卫星组成的“星链”网络,其中1584颗将部署在地球上空550千米处的近地轨道,并从2020年开始工作。该卫星仍在工作。
2D轨道图
3D轨道图
轨道高度分析图
轨道倾角分析图
轨道综合分析图
查看轨道综合分析图